Weather History for Port Lavaca, TX

Change the Weather History Date:

Tuesday, February 26, 2013

  Actual Average (KVCT) Record (KVCT)
Temperature  
Mean Temperature 52 °F 60 °F  
Max Temperature 64 °F 70 °F 89 °F (1944)
Min Temperature 41 °F 49 °F 27 °F (2002)
Degree Days  
Heating Degree Days 12 7  
Month to date heating degree days 228  
Since 1 July heating degree days 1080  
Cooling Degree Days 0 1  
Month to date cooling degree days 26  
Year to date cooling degree days 40  
Growing Degree Days 2 (Base 50)    
Moisture  
Dew Point 33 °F    
Average Humidity 48    
Maximum Humidity 82    
Minimum Humidity 26    
Precipitation  
Precipitation 0.00 in 0.08 in 1.22 in (2005)
Month to date precipitation 1.91  
Year to date precipitation 4.43  
Snow  
Snow 0.00 in - - ()
Month to date snowfall  
Since 1 July snowfall  
Snow Depth -    
Sea Level Pressure  
Sea Level Pressure 29.92 in    
Wind  
Wind Speed 10 mph (WNW)    
Max Wind Speed 16 mph    
Max Gust Speed 21 mph    
Visibility 10 miles    
Events      
T = Trace of Precipitation, MM = Missing Value Source: NWS Daily Summary

Daily Weather History Graph

Daily Weather History Graph

Search for Another Location

Airport:

Trip Planner

Search our weather history database for the weather conditions in past years. The results will help you decide how hot, cold, wet, or windy it might be!

Date:

Astronomy

Feb. 26, 2013 Rise Set
Actual Time 6:54 AM CST 6:24 PM CST
Civil Twilight 6:30 AM CST 6:48 PM CST
Nautical Twilight 6:03 AM CST 7:16 PM CST
Astronomical Twilight 5:35 AM CST 7:43 PM CST
Moon 7:31 PM CST (2/26) 7:06 AM CST (2/26)
Length of Visible Light 12h 17m
Length of Day
11h 30m
Full, 99% of the Moon is Illuminated
Feb 26
Full
Mar 4
Last Quarter
Mar 11
New
Mar 19
First Quarter
Mar 27
Full

Hourly Weather History & Observations

Time (CST) Temp. Windchill Dew Point Humidity Pressure Visibility Wind Dir Wind Speed Gust Speed Precip Events Conditions
12:15 AM 50.0 °F - 30.2 °F 47% 29.86 in 10.0 mi WNW 13.8 mph 19.6 mph N/A   Clear
12:35 AM 50.0 °F - 30.2 °F 47% 29.86 in 10.0 mi WNW 13.8 mph 19.6 mph N/A   Clear
12:55 AM 50.0 °F - 30.2 °F 47% 29.86 in 10.0 mi WNW 16.1 mph 20.7 mph N/A   Clear
1:15 AM 50.0 °F - 30.2 °F 47% 29.87 in 10.0 mi WNW 11.5 mph 20.7 mph N/A   Clear
1:35 AM 48.2 °F - 30.2 °F 50% 29.87 in 10.0 mi WNW 10.4 mph 20.7 mph N/A   Clear
1:55 AM 46.4 °F 41.5 °F 30.2 °F 53% 29.87 in 10.0 mi WNW 10.4 mph - N/A   Clear
2:15 AM 46.4 °F 41.1 °F 30.2 °F 53% 29.87 in 10.0 mi WNW 11.5 mph - N/A   Clear
2:35 AM 46.4 °F 40.1 °F 30.2 °F 53% 29.87 in 10.0 mi WNW 15.0 mph - N/A   Clear
2:55 AM 46.4 °F 41.9 °F 30.2 °F 53% 29.88 in 10.0 mi WNW 9.2 mph - N/A   Clear
3:15 AM 46.4 °F 41.1 °F 30.2 °F 53% 29.88 in 10.0 mi WNW 11.5 mph - N/A   Clear
3:35 AM 44.6 °F 39.2 °F 32.0 °F 61% 29.89 in 10.0 mi West 10.4 mph - N/A   Clear
3:55 AM 44.6 °F 39.7 °F 32.0 °F 61% 29.89 in 10.0 mi West 9.2 mph - N/A   Clear
4:15 AM 44.6 °F 39.7 °F 32.0 °F 61% 29.89 in 10.0 mi West 9.2 mph - N/A   Clear
4:35 AM 42.8 °F 39.3 °F 32.0 °F 66% 29.89 in 10.0 mi West 5.8 mph - N/A   Clear
4:55 AM 42.8 °F 38.0 °F 32.0 °F 66% 29.89 in 10.0 mi WSW 8.1 mph - N/A   Clear
5:15 AM 41.0 °F 35.8 °F 32.0 °F 70% 29.89 in 10.0 mi WSW 8.1 mph - N/A   Clear
5:35 AM 41.0 °F 35.2 °F 32.0 °F 70% 29.90 in 10.0 mi WSW 9.2 mph - N/A   Clear
5:55 AM 41.0 °F 34.7 °F 32.0 °F 70% 29.91 in 10.0 mi WSW 10.4 mph - N/A   Clear
6:15 AM 41.0 °F 33.9 °F 32.0 °F 70% 29.92 in 10.0 mi West 12.7 mph - N/A   Clear
6:35 AM 41.0 °F 34.3 °F 32.0 °F 70% 29.91 in 10.0 mi WNW 11.5 mph - N/A   Clear
6:55 AM 41.0 °F 35.8 °F 30.2 °F 65% 29.92 in 10.0 mi WNW 8.1 mph - N/A   Clear
7:15 AM 41.0 °F 35.2 °F 30.2 °F 65% 29.93 in 10.0 mi WNW 9.2 mph - N/A   Clear
7:55 AM 42.8 °F 37.5 °F 32.0 °F 66% 29.96 in 10.0 mi West 9.2 mph - N/A   Clear
8:15 AM 44.6 °F 39.7 °F 32.0 °F 61% 29.98 in 10.0 mi WNW 9.2 mph - N/A   Clear
8:35 AM 46.4 °F 41.1 °F 32.0 °F 57% 29.97 in 10.0 mi WNW 11.5 mph - N/A   Clear
8:55 AM 50.0 °F - 30.2 °F 47% 29.97 in 10.0 mi NW 11.5 mph 17.3 mph N/A   Clear
9:15 AM 51.8 °F - 32.0 °F 47% 29.97 in 10.0 mi NW 12.7 mph 19.6 mph N/A   Clear
9:35 AM 51.8 °F - 32.0 °F 47% 29.98 in 10.0 mi NW 12.7 mph - N/A   Clear
9:55 AM 53.6 °F - 32.0 °F 44% 29.98 in 10.0 mi NW 10.4 mph - N/A   Clear
10:15 AM 53.6 °F - 30.2 °F 41% 29.98 in 10.0 mi NW 10.4 mph - N/A   Clear
10:35 AM 55.4 °F - 30.2 °F 38% 29.98 in 10.0 mi WNW 11.5 mph 16.1 mph N/A   Clear
10:55 AM 57.2 °F - 30.2 °F 36% 29.98 in 10.0 mi WNW 10.4 mph 16.1 mph N/A   Clear
11:15 AM 59.0 °F - 30.2 °F 34% 29.98 in 10.0 mi WNW 10.4 mph - N/A   Clear
11:35 AM 60.8 °F - 30.2 °F 31% 29.97 in 10.0 mi NW 9.2 mph 17.3 mph N/A   Clear
11:55 AM 60.8 °F - 30.2 °F 31% 29.96 in 10.0 mi NW 9.2 mph 16.1 mph N/A   Clear
12:15 PM 62.6 °F - 30.2 °F 30% 29.96 in 10.0 mi WNW 11.5 mph - N/A   Clear
12:35 PM 62.6 °F - 30.2 °F 30% 29.95 in 10.0 mi WNW 11.5 mph - N/A   Clear
12:55 PM 62.6 °F - 30.2 °F 30% 29.95 in 10.0 mi West 12.7 mph 16.1 mph N/A   Clear
1:15 PM 64.4 °F - 28.4 °F 26% 29.93 in 10.0 mi NW 12.7 mph 18.4 mph N/A   Clear
1:35 PM 64.4 °F - 30.2 °F 28% 29.92 in 10.0 mi WNW 11.5 mph - N/A   Clear
1:55 PM 64.4 °F - 28.4 °F 26% 29.90 in 10.0 mi NNW 12.7 mph 17.3 mph N/A   Clear
2:15 PM 64.4 °F - 28.4 °F 26% 29.90 in 10.0 mi WNW 13.8 mph - N/A   Clear
2:35 PM 64.4 °F - 28.4 °F 26% 29.89 in 10.0 mi WNW 13.8 mph 18.4 mph N/A   Clear
2:55 PM 64.4 °F - 28.4 °F 26% 29.90 in 10.0 mi West 9.2 mph - N/A   Clear
3:15 PM 64.4 °F - 28.4 °F 26% 29.89 in 10.0 mi WNW 12.7 mph 17.3 mph N/A   Clear
3:35 PM 64.4 °F - 28.4 °F 26% 29.89 in 10.0 mi West 10.4 mph 16.1 mph N/A   Clear
3:55 PM 64.4 °F - 28.4 °F 26% 29.88 in 10.0 mi NW 6.9 mph - N/A   Clear
4:15 PM 64.4 °F - 28.4 °F 26% 29.88 in 10.0 mi WNW 9.2 mph 16.1 mph N/A   Clear
4:35 PM 64.4 °F - 30.2 °F 28% 29.88 in 10.0 mi WNW 6.9 mph - N/A   Clear
4:55 PM 64.4 °F - 30.2 °F 28% 29.89 in 10.0 mi West 8.1 mph - N/A   Clear
5:15 PM 64.4 °F - 30.2 °F 28% 29.88 in 10.0 mi WNW 6.9 mph - N/A   Clear
5:35 PM 64.4 °F - 28.4 °F 26% 29.88 in 10.0 mi WNW 9.2 mph - N/A   Clear
5:55 PM 62.6 °F - 28.4 °F 27% 29.88 in 10.0 mi WNW 3.5 mph - N/A   Clear
6:15 PM 62.6 °F - 30.2 °F 30% 29.89 in 10.0 mi Calm Calm - N/A   Clear
6:35 PM 59.0 °F - 32.0 °F 36% 29.90 in 10.0 mi North 4.6 mph - N/A   Clear
6:55 PM 59.0 °F - 30.2 °F 34% 29.90 in 10.0 mi Calm Calm - N/A   Clear
7:15 PM 57.2 °F - 32.0 °F 38% 29.90 in 10.0 mi Calm Calm - N/A   Clear
7:35 PM 57.2 °F - 32.0 °F 38% 29.90 in 10.0 mi ENE 3.5 mph - N/A   Clear
7:55 PM 55.4 °F - 30.2 °F 38% 29.90 in 10.0 mi East 3.5 mph - N/A   Clear
8:15 PM 53.6 °F - 33.8 °F 47% 29.91 in 10.0 mi East 4.6 mph - N/A   Clear
8:35 PM 51.8 °F - 35.6 °F 54% 29.92 in 10.0 mi SSE 6.9 mph - N/A   Clear
8:55 PM 53.6 °F - 44.6 °F 72% 29.93 in 10.0 mi SSE 5.8 mph - N/A   Clear
9:15 PM 51.8 °F - 44.6 °F 76% 29.93 in 10.0 mi SSE 6.9 mph - N/A   Clear
9:35 PM 53.6 °F - 44.6 °F 72% 29.93 in 10.0 mi SSE 5.8 mph - N/A   Clear
9:55 PM 53.6 °F - 42.8 °F 67% 29.94 in 10.0 mi South 6.9 mph - N/A   Clear
10:15 PM 53.6 °F - 44.6 °F 72% 29.94 in 10.0 mi South 6.9 mph - N/A   Clear
10:35 PM 51.8 °F - 44.6 °F 76% 29.94 in 10.0 mi South 6.9 mph - N/A   Clear
10:55 PM 53.6 °F - 46.4 °F 77% 29.93 in 10.0 mi South 6.9 mph - N/A   Clear
11:15 PM 53.6 °F - 46.4 °F 77% 29.93 in 10.0 mi SSE 6.9 mph - N/A   Clear
11:35 PM 53.6 °F - 46.4 °F 77% 29.93 in 10.0 mi South 6.9 mph - N/A   Clear
11:55 PM 51.8 °F - 46.4 °F 82% 29.93 in 10.0 mi South 5.8 mph - N/A   Clear